Weather History for KD39 - September, 2013

Change the Weather History Date:

Sunday, September 29, 2013

  Actual Average (KGHW) Record (KGHW)
Temperature  
Mean Temperature 58 °F -  
Max Temperature 75 °F 65 °F 84 °F (2012)
Min Temperature 40 °F 41 °F 25 °F (1984)
Degree Days  
Heating Degree Days 8    
Growing Degree Days 8 (Base 50)    
Moisture  
Dew Point 44 °F    
Average Humidity 64    
Maximum Humidity 93    
Minimum Humidity 31    
Precipitation  
Precipitation 0.00 in - - ()
Sea Level Pressure  
Sea Level Pressure 29.83 in    
Wind  
Wind Speed 7 mph (SSE)    
Max Wind Speed 20 mph    
Max Gust Speed 25 mph    
Visibility 10 miles    
Events      
Averages and records for this station are not official NWS values.
T = Trace of Precipitation, MM = Missing Value Source: NWS Daily Summary

Daily Weather History Graph

Daily Weather History Graph

Search for Another Location

Airport or City:

Trip Planner

Search our weather history database for the weather conditions in past years. The results will help you decide how hot, cold, wet, or windy it might be!

Date:

Astronomy

Sep. 29, 2013 Rise Set
Actual Time 7:15 AM CDT 7:03 PM CDT
Civil Twilight 6:46 AM CDT 7:32 PM CDT
Nautical Twilight 6:11 AM CDT 8:07 PM CDT
Astronomical Twilight 5:36 AM CDT 8:42 PM CDT
Moon 1:44 AM CDT (9/29) 4:12 PM CDT (9/29)
Length of Visible Light 12h 46m
Length of Day
11h 47m
Waning Crescent, 27% of the Moon is Illuminated
Sep 29
Waning Crescent
Oct 4
New
Oct 11
First Quarter
Oct 18
Full
Oct 26
Last Quarter

Hourly Weather History & Observations

Time (CDT) Temp. Windchill Dew Point Humidity Pressure Visibility Wind Dir Wind Speed Gust Speed Precip Events Conditions
12:11 AM 46.0 °F 41.0 °F 42.3 °F 87% 29.90 in 10.0 mi SSW 10.4 mph - N/A   Clear
12:32 AM 45.5 °F 41.8 °F 42.1 °F 88% 29.90 in 10.0 mi South 6.9 mph - N/A   Clear
12:51 AM 44.4 °F 42.9 °F 41.5 °F 90% 29.90 in 10.0 mi South 3.5 mph - N/A   Clear
1:11 AM 43.9 °F - 41.2 °F 90% 29.90 in 10.0 mi Calm Calm - N/A   Clear
1:31 AM 44.8 °F 43.3 °F 41.0 °F 87% 29.90 in 10.0 mi South 3.5 mph - N/A   Clear
1:51 AM 43.9 °F 41.3 °F 40.6 °F 88% 29.90 in 10.0 mi SSW 4.6 mph - N/A   Clear
2:12 AM 42.6 °F 39.9 °F 40.1 °F 91% 29.90 in 10.0 mi SSW 4.6 mph - N/A   Clear
2:31 AM 43.2 °F 41.5 °F 40.5 °F 90% 29.91 in 10.0 mi South 3.5 mph - N/A   Clear
2:51 AM 43.7 °F 42.1 °F 40.5 °F 88% 29.90 in 10.0 mi South 3.5 mph - N/A   Clear
3:11 AM 43.7 °F - 40.5 °F 88% 29.90 in 10.0 mi Calm Calm - N/A   Clear
3:31 AM 43.7 °F - 40.6 °F 89% 29.90 in 10.0 mi Calm Calm - N/A   Clear
3:51 AM 43.7 °F - 40.5 °F 88% 29.90 in 10.0 mi Calm Calm - N/A   Clear
4:11 AM 41.9 °F 40.0 °F 39.6 °F 91% 29.90 in 10.0 mi South 3.5 mph - N/A   Clear
4:31 AM 42.1 °F 39.2 °F 39.6 °F 91% 29.90 in 10.0 mi South 4.6 mph - N/A   Clear
4:52 AM 41.4 °F 39.4 °F 39.4 °F 93% 29.90 in 10.0 mi South 3.5 mph - N/A   Clear
5:11 AM 42.1 °F 39.2 °F 39.6 °F 91% 29.90 in 10.0 mi SSW 4.6 mph - N/A   Clear
5:31 AM 41.5 °F 38.6 °F 39.4 °F 92% 29.90 in 10.0 mi South 4.6 mph - N/A   Clear
5:51 AM 41.4 °F 38.4 °F 39.2 °F 92% 29.90 in 10.0 mi SSE 4.6 mph - N/A   Clear
6:11 AM 41.2 °F 38.2 °F 39.2 °F 93% 29.90 in 10.0 mi South 4.6 mph - N/A   Clear
6:31 AM 41.0 °F 39.0 °F 39.2 °F 93% 29.91 in 10.0 mi SSE 3.5 mph - N/A   Clear
6:51 AM 40.6 °F 37.5 °F 38.8 °F 93% 29.91 in 10.0 mi SSE 4.6 mph - N/A   Clear
7:11 AM 41.0 °F 38.0 °F 38.8 °F 92% 29.91 in 10.0 mi South 4.6 mph - N/A   Clear
7:32 AM 41.5 °F 38.6 °F 39.2 °F 91% 29.91 in 10.0 mi South 4.6 mph - N/A   Clear
7:51 AM 43.0 °F 40.3 °F 40.1 °F 90% 29.91 in 10.0 mi South 4.6 mph - N/A   Clear
8:11 AM 44.8 °F 43.3 °F 41.4 °F 88% 29.90 in 10.0 mi South 3.5 mph - N/A   Clear
8:31 AM 46.6 °F - 42.1 °F 84% 29.91 in 10.0 mi South 4.6 mph - N/A   Clear
8:51 AM 48.7 °F - 43.3 °F 82% 29.90 in 10.0 mi South 4.6 mph - N/A   Clear
9:11 AM 50.9 °F - 45.3 °F 81% 29.90 in 10.0 mi South 4.6 mph - N/A   Clear
9:31 AM 53.2 °F - 45.1 °F 74% 29.90 in 10.0 mi South 4.6 mph - N/A   Clear
9:51 AM 55.4 °F - 46.4 °F 72% 29.90 in 10.0 mi SSE 4.6 mph - N/A   Clear
10:12 AM 58.8 °F - 46.9 °F 65% 29.89 in 10.0 mi SE 4.6 mph - N/A   Clear
10:31 AM 60.6 °F - 47.1 °F 61% 29.89 in 10.0 mi SSE 6.9 mph - N/A   Clear
10:51 AM 62.4 °F - 47.1 °F 57% 29.90 in 10.0 mi SSE 6.9 mph - N/A   Clear
11:11 AM 64.2 °F - 48.0 °F 56% 29.89 in 10.0 mi SSE 6.9 mph - N/A   Clear
11:31 AM 66.6 °F - 46.8 °F 49% 29.88 in 10.0 mi SSE 9.2 mph - N/A   Clear
11:52 AM 68.0 °F - 46.0 °F 45% 29.87 in 10.0 mi South 12.7 mph - N/A   Clear
12:11 PM 69.6 °F - 44.4 °F 40% 29.86 in 10.0 mi SSE 11.5 mph - N/A   Clear
12:31 PM 70.3 °F - 45.0 °F 40% 29.86 in 10.0 mi SSE 11.5 mph - N/A   Clear
12:51 PM 71.2 °F - 43.7 °F 37% 29.85 in 10.0 mi SSE 13.8 mph - N/A   Clear
1:11 PM 71.8 °F - 44.2 °F 37% 29.84 in 10.0 mi SSE 13.8 mph 18.4 mph N/A   Clear
1:32 PM 72.5 °F - 44.1 °F 36% 29.83 in 10.0 mi South 17.3 mph 20.7 mph N/A   Clear
1:51 PM 72.9 °F - 44.4 °F 36% 29.82 in 10.0 mi SSE 17.3 mph 25.3 mph N/A   Clear
2:11 PM 73.2 °F - 45.5 °F 37% 29.81 in 10.0 mi South 12.7 mph 23.0 mph N/A   Clear
2:31 PM 73.8 °F - 44.8 °F 35% 29.80 in 10.0 mi South 18.4 mph - N/A   Clear
2:51 PM 73.9 °F - 44.4 °F 35% 29.80 in 10.0 mi South 19.6 mph 23.0 mph N/A   Clear
3:11 PM 73.9 °F - 44.6 °F 35% 29.79 in 10.0 mi South 16.1 mph 20.7 mph N/A   Clear
3:31 PM 74.3 °F - 44.2 °F 34% 29.78 in 10.0 mi South 15.0 mph - N/A   Clear
3:51 PM 75.0 °F - 44.4 °F 34% 29.77 in 10.0 mi SSE 15.0 mph 20.7 mph N/A   Clear
4:11 PM 74.8 °F - 42.3 °F 31% 29.76 in 10.0 mi South 15.0 mph - N/A   Clear
4:31 PM 74.7 °F - 44.2 °F 34% 29.75 in 10.0 mi South 13.8 mph 18.4 mph N/A   Clear
4:51 PM 74.3 °F - 44.4 °F 34% 29.75 in 7.0 mi SSE 15.0 mph - N/A   Clear
5:11 PM 73.6 °F - 46.0 °F 37% 29.75 in 10.0 mi South 13.8 mph - N/A   Clear
5:31 PM 72.9 °F - 45.9 °F 38% 29.74 in 10.0 mi South 12.7 mph - N/A   Clear
5:51 PM 72.0 °F - 46.0 °F 40% 29.74 in 10.0 mi South 10.4 mph - N/A   Clear
6:11 PM 70.7 °F - 47.1 °F 43% 29.74 in 10.0 mi SSE 6.9 mph - N/A   Clear
6:31 PM 68.7 °F - 47.3 °F 46% 29.73 in 10.0 mi SE 8.1 mph - N/A   Clear
6:51 PM 65.8 °F - 47.1 °F 51% 29.73 in 10.0 mi SE 6.9 mph - N/A   Clear
7:11 PM 64.8 °F - 46.8 °F 52% 29.73 in 10.0 mi SE 8.1 mph - N/A   Clear
7:31 PM 63.7 °F - 46.6 °F 54% 29.73 in 10.0 mi SE 8.1 mph - N/A   Clear
7:51 PM 62.8 °F - 46.4 °F 55% 29.73 in 10.0 mi SE 8.1 mph - N/A   Clear
8:11 PM 62.6 °F - 45.7 °F 54% 29.72 in 10.0 mi SE 6.9 mph - N/A   Clear
8:31 PM 61.9 °F - 45.9 °F 56% 29.72 in 10.0 mi SE 8.1 mph - N/A   Clear
8:51 PM 61.7 °F - 45.7 °F 56% 29.72 in 10.0 mi SE 8.1 mph - N/A   Clear
9:11 PM 61.0 °F - 45.7 °F 57% 29.72 in 10.0 mi SE 8.1 mph - N/A   Clear
9:31 PM 60.4 °F - 46.0 °F 59% 29.72 in 10.0 mi SSE 10.4 mph - N/A   Clear
9:52 PM 61.5 °F - 46.6 °F 58% 29.71 in 10.0 mi SSE 12.7 mph - N/A   Clear
10:11 PM 61.7 °F - 46.8 °F 58% 29.71 in 10.0 mi SSE 11.5 mph - N/A   Clear
10:31 PM 61.3 °F - 46.9 °F 59% 29.70 in 10.0 mi SSE 12.7 mph - N/A   Clear
10:51 PM 62.2 °F - 46.6 °F 57% 29.70 in 10.0 mi South 13.8 mph - N/A   Clear
11:11 PM 62.6 °F - 46.4 °F 55% 29.70 in 10.0 mi South 16.1 mph 20.7 mph N/A   Clear
11:32 PM 62.6 °F - 45.9 °F 54% 29.70 in 10.0 mi South 16.1 mph 23.0 mph N/A   Clear
11:51 PM 64.2 °F - 45.1 °F 50% 29.69 in 10.0 mi South 17.3 mph 23.0 mph N/A   Clear